�v������,1F�Ɩ�(kWh),2F�Ɩ�(kWh),3F�Ɩ�(kWh)
2024-01-01 00:00:00,0.01,0,0
2024-01-01 00:10:00,0.01,0,0.01
2024-01-01 00:20:00,0.01,0,0.01
2024-01-01 00:30:00,0.01,0,0
2024-01-01 00:40:00,0,0,0.01
2024-01-01 00:50:00,0.01,0,0.01
2024-01-01 01:00:00,0.01,0,0
2024-01-01 01:10:00,0.01,0,0.01
2024-01-01 01:20:00,0,0,0.01
2024-01-01 01:30:00,0.01,0,0
2024-01-01 01:40:00,0.01,0,0.01
2024-01-01 01:50:00,0.01,0,0.01
2024-01-01 02:00:00,0.01,0,0
2024-01-01 02:10:00,0,0,0.01
2024-01-01 02:20:00,0.01,0,0.01
2024-01-01 02:30:00,0.01,0,0
2024-01-01 02:40:00,0.01,0,0.01
2024-01-01 02:50:00,0,0,0.01
2024-01-01 03:00:00,0.01,0,0
2024-01-01 03:10:00,0.01,0,0.01
2024-01-01 03:20:00,0.01,0,0.01
2024-01-01 03:30:00,0,0,0
2024-01-01 03:40:00,0.01,0,0.01
2024-01-01 03:50:00,0.01,0,0
2024-01-01 04:00:00,0.01,0,0.01
2024-01-01 04:10:00,0.01,0,0.01
2024-01-01 04:20:00,0,0,0
2024-01-01 04:30:00,0.01,0,0.01
2024-01-01 04:40:00,0.01,0,0.01
2024-01-01 04:50:00,0.01,0,0
2024-01-01 05:00:00,0.01,0,0.01
2024-01-01 05:10:00,0,0,0.01
2024-01-01 05:20:00,0.01,0,0
2024-01-01 05:30:00,0.01,0,0.01
2024-01-01 05:40:00,0.01,0,0.01
2024-01-01 05:50:00,0,0,0
2024-01-01 06:00:00,0.02,0,0.01
2024-01-01 06:10:00,0.01,0,0.01
2024-01-01 06:20:00,0.01,0,0
2024-01-01 06:30:00,0.01,0,0.01
2024-01-01 06:40:00,0,0,0.01
2024-01-01 06:50:00,0.01,0,0
2024-01-01 07:00:00,0.01,0,0.01
2024-01-01 07:10:00,0.01,0,0
2024-01-01 07:20:00,0,0,0.01
2024-01-01 07:30:00,0.01,0,0.01
2024-01-01 07:40:00,0.02,0.06,0
2024-01-01 07:50:00,0.05,0.05,0.01
2024-01-01 08:00:00,0.01,0.07,0.01
2024-01-01 08:10:00,0.01,0.07,0
2024-01-01 08:20:00,0.01,0.08,0.01
2024-01-01 08:30:00,0.01,0.12,0.01
2024-01-01 08:40:00,0.01,0.08,0
2024-01-01 08:50:00,0,0.06,0.01
2024-01-01 09:00:00,0.01,0.06,0.01
2024-01-01 09:10:00,0.01,0.05,0
2024-01-01 09:20:00,0.01,0.08,0.01
2024-01-01 09:30:00,0.01,0.07,0.01
2024-01-01 09:40:00,0,0.05,0
2024-01-01 09:50:00,0.01,0.06,0.01
2024-01-01 10:00:00,0.01,0.05,0
2024-01-01 10:10:00,0.01,0.09,0.01
2024-01-01 10:20:00,0,0.09,0.01
2024-01-01 10:30:00,0.01,0.05,0
2024-01-01 10:40:00,0.01,0.07,0.01
2024-01-01 10:50:00,0.01,0.1,0.01
2024-01-01 11:00:00,0.01,0.05,0
2024-01-01 11:10:00,0,0.07,0.01
2024-01-01 11:20:00,0.01,0.06,0.01
2024-01-01 11:30:00,0.01,0.06,0
2024-01-01 11:40:00,0.01,0.06,0.01
2024-01-01 11:50:00,0,0.06,0.01
2024-01-01 12:00:00,0.01,0.05,0
2024-01-01 12:10:00,0.02,0.08,0.01
2024-01-01 12:20:00,0.01,0.06,0.01
2024-01-01 12:30:00,0.01,0.06,0
2024-01-01 12:40:00,0,0.06,0.01
2024-01-01 12:50:00,0.01,0.11,0.01
2024-01-01 13:00:00,0.01,0.07,0
2024-01-01 13:10:00,0.01,0.09,0.01
2024-01-01 13:20:00,0,0.06,0
2024-01-01 13:30:00,0.01,0.06,0.01
2024-01-01 13:40:00,0.01,0.05,0.01
2024-01-01 13:50:00,0.01,0.08,0
2024-01-01 14:00:00,0.01,0.05,0.01
2024-01-01 14:10:00,0,0.06,0.01
2024-01-01 14:20:00,0.01,0.06,0
2024-01-01 14:30:00,0.01,0.06,0.01
2024-01-01 14:40:00,0.01,0.05,0.01
2024-01-01 14:50:00,0,0.1,0
2024-01-01 15:00:00,0.01,0.06,0.01
2024-01-01 15:10:00,0.01,0.06,0.01
2024-01-01 15:20:00,0.01,0.05,0
2024-01-01 15:30:00,0.01,0.06,0.01
2024-01-01 15:40:00,0,0.06,0.01
2024-01-01 15:50:00,0.01,0.05,0
2024-01-01 16:00:00,0.01,0.1,0.01
2024-01-01 16:10:00,0.01,0.15,0
2024-01-01 16:20:00,0.01,0.12,0.01
2024-01-01 16:30:00,0.02,0.17,0.01
2024-01-01 16:40:00,0.02,0.06,0.02
2024-01-01 16:50:00,0.01,0.03,0.03
2024-01-01 17:00:00,0.01,0.11,0.01
2024-01-01 17:10:00,0.01,0.06,0
2024-01-01 17:20:00,0.01,0.06,0.01
2024-01-01 17:30:00,0.01,0.06,0.01
2024-01-01 17:40:00,0,0.11,0
2024-01-01 17:50:00,0.01,0.03,0.01
2024-01-01 18:00:00,0,0,0.01
2024-01-01 18:10:00,0,0,0
2024-01-01 18:20:00,0,0,0.01
2024-01-01 18:30:00,0,0,0.01
2024-01-01 18:40:00,0,0,0
2024-01-01 18:50:00,0,0,0.01
2024-01-01 19:00:00,0,0,0
2024-01-01 19:10:00,0,0,0.01
2024-01-01 19:20:00,0,0,0.01
2024-01-01 19:30:00,0,0,0
2024-01-01 19:40:00,0,0,0.01
2024-01-01 19:50:00,0,0,0.01
2024-01-01 20:00:00,0,0,0
2024-01-01 20:10:00,0,0,0.01
2024-01-01 20:20:00,0,0,0.01
2024-01-01 20:30:00,0,0,0
2024-01-01 20:40:00,0,0,0.01
2024-01-01 20:50:00,0,0,0.01
2024-01-01 21:00:00,0,0,0
2024-01-01 21:10:00,0,0,0.01
2024-01-01 21:20:00,0,0,0.01
2024-01-01 21:30:00,0,0,0
2024-01-01 21:40:00,0,0,0.01
2024-01-01 21:50:00,0,0,0
2024-01-01 22:00:00,0,0,0.01
2024-01-01 22:10:00,0,0,0.01
2024-01-01 22:20:00,0,0,0
2024-01-01 22:30:00,0,0,0.01
2024-01-01 22:40:00,0,0,0.01
2024-01-01 22:50:00,0,0,0
2024-01-01 23:00:00,0,0,0.01
2024-01-01 23:10:00,0,0,0.01
2024-01-01 23:20:00,0,0,0
2024-01-01 23:30:00,0,0,0.01
2024-01-01 23:40:00,0,0,0.01
2024-01-01 23:50:00,0,0,0
2024-01-02 00:00:00,0,0,0.01
2024-01-02 00:10:00,0,0,0.01
2024-01-02 00:20:00,0,0,0
2024-01-02 00:30:00,0,0,0.01
2024-01-02 00:40:00,0,0,0.01
2024-01-02 00:50:00,0,0,0
2024-01-02 01:00:00,0,0,0.01
2024-01-02 01:10:00,0,0,0.01
2024-01-02 01:20:00,0,0,0
2024-01-02 01:30:00,0,0,0.01
2024-01-02 01:40:00,0,0,0
2024-01-02 01:50:00,0,0,0.01
2024-01-02 02:00:00,0,0,0.01
2024-01-02 02:10:00,0,0,0
2024-01-02 02:20:00,0,0,0.01
2024-01-02 02:30:00,0,0,0.01
2024-01-02 02:40:00,0,0,0
2024-01-02 02:50:00,0,0,0.01
2024-01-02 03:00:00,0,0,0.01
2024-01-02 03:10:00,0,0,0
2024-01-02 03:20:00,0,0,0.01
2024-01-02 03:30:00,0,0,0.01
2024-01-02 03:40:00,0,0,0
2024-01-02 03:50:00,0,0,0.01
2024-01-02 04:00:00,0,0,0.01
2024-01-02 04:10:00,0,0,0
2024-01-02 04:20:00,0,0,0.01
2024-01-02 04:30:00,0,0,0.01
2024-01-02 04:40:00,0,0,0
2024-01-02 04:50:00,0,0,0.01
2024-01-02 05:00:00,0,0,0
2024-01-02 05:10:00,0,0,0.01
2024-01-02 05:20:00,0,0,0.01
2024-01-02 05:30:00,0,0,0
2024-01-02 05:40:00,0,0,0.01
2024-01-02 05:50:00,0,0,0.01
2024-01-02 06:00:00,0,0,0
2024-01-02 06:10:00,0,0,0.01
2024-01-02 06:20:00,0,0,0.01
2024-01-02 06:30:00,0,0,0
2024-01-02 06:40:00,0,0,0.01
2024-01-02 06:50:00,0,0,0.01
2024-01-02 07:00:00,0,0,0
2024-01-02 07:10:00,0,0,0.01
2024-01-02 07:20:00,0,0,0
2024-01-02 07:30:00,0,0,0.01
2024-01-02 07:40:00,0,0,0.01
2024-01-02 07:50:00,0,0,0
2024-01-02 08:00:00,0,0.03,0.01
2024-01-02 08:10:00,0,0.04,0.01
2024-01-02 08:20:00,0,0.04,0
2024-01-02 08:30:00,0,0.04,0.01
2024-01-02 08:40:00,0,0.04,0.01
2024-01-02 08:50:00,0,0.04,0
2024-01-02 09:00:00,0,0.04,0.01
2024-01-02 09:10:00,0,0.04,0.01
2024-01-02 09:20:00,0,0.04,0
2024-01-02 09:30:00,0,0.04,0.01
2024-01-02 09:40:00,0,0.09,0
2024-01-02 09:50:00,0,0.11,0.01
2024-01-02 10:00:00,0,0.09,0.01
2024-01-02 10:10:00,0,0.08,0
2024-01-02 10:20:00,0,0.09,0.01
2024-01-02 10:30:00,0,0.08,0.01
2024-01-02 10:40:00,0,0.11,0
2024-01-02 10:50:00,0,0.09,0.01
2024-01-02 11:00:00,0,0.08,0.01
2024-01-02 11:10:00,0,0.08,0
2024-01-02 11:20:00,0.01,0.1,0.01
2024-01-02 11:30:00,0,0.12,0.01
2024-01-02 11:40:00,0,0.08,0
2024-01-02 11:50:00,0.02,0.09,0.01
2024-01-02 12:00:00,0,0.08,0.01
2024-01-02 12:10:00,0,0.09,0
2024-01-02 12:20:00,0,0.11,0.01
2024-01-02 12:30:00,0,0.1,0
2024-01-02 12:40:00,0,0.12,0.01
2024-01-02 12:50:00,0,0.08,0.01
2024-01-02 13:00:00,0,0.09,0
2024-01-02 13:10:00,0,0.05,0.01
2024-01-02 13:20:00,0,0.04,0.01
2024-01-02 13:30:00,0,0.09,0
2024-01-02 13:40:00,0,0.08,0.01
2024-01-02 13:50:00,0,0.09,0.01
2024-01-02 14:00:00,0,0.11,0
2024-01-02 14:10:00,0,0.09,0.01
2024-01-02 14:20:00,0,0.08,0.01
2024-01-02 14:30:00,0,0.12,0
2024-01-02 14:40:00,0,0.08,0.01
2024-01-02 14:50:00,0,0.08,0.01
2024-01-02 15:00:00,0,0.09,0
2024-01-02 15:10:00,0,0.08,0.01
2024-01-02 15:20:00,0,0.09,0.01
2024-01-02 15:30:00,0,0.08,0
2024-01-02 15:40:00,0.01,0.09,0.01
2024-01-02 15:50:00,0,0.06,0
2024-01-02 16:00:00,0,0.08,0.01
2024-01-02 16:10:00,0,0.11,0.01
2024-01-02 16:20:00,0,0.09,0
2024-01-02 16:30:00,0,0.08,0.01
2024-01-02 16:40:00,0,0.09,0.01
2024-01-02 16:50:00,0,0.08,0
2024-01-02 17:00:00,0,0.08,0.01
2024-01-02 17:10:00,0,0.06,0.01
2024-01-02 17:20:00,0,0.05,0
2024-01-02 17:30:00,0,0.07,0.01
2024-01-02 17:40:00,0,0.05,0.01
2024-01-02 17:50:00,0,0.04,0
2024-01-02 18:00:00,0,0.07,0.01
2024-01-02 18:10:00,0,0.05,0
2024-01-02 18:20:00,0,0.07,0.01
2024-01-02 18:30:00,0,0.09,0.01
2024-01-02 18:40:00,0,0.05,0
2024-01-02 18:50:00,0,0.07,0.01
2024-01-02 19:00:00,0,0.06,0.01
2024-01-02 19:10:00,0,0.06,0
2024-01-02 19:20:00,0,0.06,0.01
2024-01-02 19:30:00,0,0.06,0.01
2024-01-02 19:40:00,0,0.09,0
2024-01-02 19:50:00,0,0.07,0.01
2024-01-02 20:00:00,0,0.05,0.01
2024-01-02 20:10:00,0,0.07,0
2024-01-02 20:20:00,0,0.05,0.01
2024-01-02 20:30:00,0,0.08,0
2024-01-02 20:40:00,0,0.07,0.01
2024-01-02 20:50:00,0,0.05,0.01
2024-01-02 21:00:00,0,0.07,0
2024-01-02 21:10:00,0,0.06,0.01
2024-01-02 21:20:00,0,0.09,0.01
2024-01-02 21:30:00,0,0.06,0
2024-01-02 21:40:00,0,0.06,0.01
2024-01-02 21:50:00,0,0.06,0.01
2024-01-02 22:00:00,0,0.07,0
2024-01-02 22:10:00,0,0.05,0.01
2024-01-02 22:20:00,0,0.07,0.01
2024-01-02 22:30:00,0,0.06,0
2024-01-02 22:40:00,0,0.06,0.01
2024-01-02 22:50:00,0,0.06,0.01
2024-01-02 23:00:00,0,0.05,0
2024-01-02 23:10:00,0,0.09,0.01
2024-01-02 23:20:00,0,0.07,0
2024-01-02 23:30:00,0,0.06,0.01
2024-01-02 23:40:00,0,0.06,0.01
2024-01-02 23:50:00,0,0.07,0
2024-01-03 00:00:00,0,0.05,0.01
2024-01-03 00:10:00,0,0.07,0.01
2024-01-03 00:20:00,0,0.05,0
2024-01-03 00:30:00,0.02,0.03,0.01
2024-01-03 00:40:00,0,0,0.01
2024-01-03 00:50:00,0,0,0
2024-01-03 01:00:00,0,0,0.01
2024-01-03 01:10:00,0,0,0.01
2024-01-03 01:20:00,0,0,0
2024-01-03 01:30:00,0,0,0.01
2024-01-03 01:40:00,0,0,0.01
2024-01-03 01:50:00,0,0,0
2024-01-03 02:00:00,0,0,0.01
2024-01-03 02:10:00,0,0,0.01
2024-01-03 02:20:00,0,0,0
2024-01-03 02:30:00,0,0,0.01
2024-01-03 02:40:00,0,0,0
2024-01-03 02:50:00,0,0,0.01
2024-01-03 03:00:00,0,0,0.01
2024-01-03 03:10:00,0,0,0
2024-01-03 03:20:00,0,0,0.01
2024-01-03 03:30:00,0,0,0.01
2024-01-03 03:40:00,0,0,0
2024-01-03 03:50:00,0,0,0.01
2024-01-03 04:00:00,0,0,0.01
2024-01-03 04:10:00,0,0,0
2024-01-03 04:20:00,0,0,0.01
2024-01-03 04:30:00,0,0,0.01
2024-01-03 04:40:00,0,0,0
2024-01-03 04:50:00,0,0,0.01
2024-01-03 05:00:00,0,0,0
2024-01-03 05:10:00,0,0,0.01
2024-01-03 05:20:00,0,0,0.01
2024-01-03 05:30:00,0,0,0
2024-01-03 05:40:00,0,0,0.01
2024-01-03 05:50:00,0,0,0.01
2024-01-03 06:00:00,0,0,0
2024-01-03 06:10:00,0,0,0.01
2024-01-03 06:20:00,0,0,0.01
2024-01-03 06:30:00,0,0,0
2024-01-03 06:40:00,0,0,0.01
2024-01-03 06:50:00,0.01,0.05,0.01
2024-01-03 07:00:00,0,0.12,0
2024-01-03 07:10:00,0,0.11,0.01
2024-01-03 07:20:00,0,0.1,0.01
2024-01-03 07:30:00,0,0.1,0
2024-01-03 07:40:00,0,0.09,0.01
2024-01-03 07:50:00,0,0.1,0
2024-01-03 08:00:00,0,0.13,0.01
2024-01-03 08:10:00,0,0.09,0.01
2024-01-03 08:20:00,0,0.13,0
2024-01-03 08:30:00,0,0.1,0.01
2024-01-03 08:40:00,0,0.09,0.01
2024-01-03 08:50:00,0,0.1,0
2024-01-03 09:00:00,0,0.13,0.01
2024-01-03 09:10:00,0,0.09,0.01
2024-01-03 09:20:00,0,0.09,0
2024-01-03 09:30:00,0,0.09,0.01
2024-01-03 09:40:00,0,0.1,0.01
2024-01-03 09:50:00,0,0.09,0
2024-01-03 10:00:00,0,0.09,0.01
2024-01-03 10:10:00,0,0.09,0
2024-01-03 10:20:00,0,0.09,0.01
2024-01-03 10:30:00,0,0.14,0.01
2024-01-03 10:40:00,0,0.09,0
2024-01-03 10:50:00,0,0.17,0.01
2024-01-03 11:00:00,0,0.09,0.01
2024-01-03 11:10:00,0,0.1,0
2024-01-03 11:20:00,0,0.21,0.01
2024-01-03 11:30:00,0.01,0.17,0.01
2024-01-03 11:40:00,0.03,0.19,0
2024-01-03 11:50:00,0,0.14,0.01
2024-01-03 12:00:00,0,0.14,0.01
2024-01-03 12:10:00,0,0.18,0
2024-01-03 12:20:00,0.01,0.17,0.01
2024-01-03 12:30:00,0.01,0.07,0.01
2024-01-03 12:40:00,0.01,0.12,0
2024-01-03 12:50:00,0,0.16,0.01
2024-01-03 13:00:00,0,0.15,0
2024-01-03 13:10:00,0,0.14,0.01
2024-01-03 13:20:00,0,0.14,0.01
2024-01-03 13:30:00,0,0.13,0
2024-01-03 13:40:00,0,0.17,0.01
2024-01-03 13:50:00,0.01,0.14,0.01
2024-01-03 14:00:00,0,0.15,0
2024-01-03 14:10:00,0.03,0.15,0.01
2024-01-03 14:20:00,0.01,0.13,0.01
2024-01-03 14:30:00,0,0.14,0
2024-01-03 14:40:00,0,0.15,0.01
2024-01-03 14:50:00,0.01,0.15,0.01
2024-01-03 15:00:00,0,0.18,0
2024-01-03 15:10:00,0,0.13,0.01
2024-01-03 15:20:00,0,0.2,0.01
2024-01-03 15:30:00,0,0.17,0
2024-01-03 15:40:00,0,0.15,0.01
2024-01-03 15:50:00,0,0.2,0
2024-01-03 16:00:00,0,0.16,0.01
2024-01-03 16:10:00,0,0.18,0.01
2024-01-03 16:20:00,0.01,0.14,0
2024-01-03 16:30:00,0,0.16,0.01
2024-01-03 16:40:00,0,0.16,0.01
2024-01-03 16:50:00,0,0.14,0
2024-01-03 17:00:00,0.02,0.16,0.01
2024-01-03 17:10:00,0.03,0.16,0.01
2024-01-03 17:20:00,0.01,0.1,0
2024-01-03 17:30:00,0.01,0.02,0.01
2024-01-03 17:40:00,0,0,0.01
2024-01-03 17:50:00,0,0,0
2024-01-03 18:00:00,0,0,0.01
2024-01-03 18:10:00,0,0,0
2024-01-03 18:20:00,0,0,0.01
2024-01-03 18:30:00,0,0,0.01
2024-01-03 18:40:00,0,0,0
2024-01-03 18:50:00,0,0,0.01
2024-01-03 19:00:00,0,0,0.01
2024-01-03 19:10:00,0,0,0
2024-01-03 19:20:00,0,0,0.01
2024-01-03 19:30:00,0,0,0.01
2024-01-03 19:40:00,0,0,0
2024-01-03 19:50:00,0,0,0.01
2024-01-03 20:00:00,0,0,0.01
2024-01-03 20:10:00,0,0,0
2024-01-03 20:20:00,0,0,0.01
2024-01-03 20:30:00,0,0,0.01
2024-01-03 20:40:00,0,0,0
2024-01-03 20:50:00,0,0,0.01
2024-01-03 21:00:00,0,0,0
2024-01-03 21:10:00,0,0,0.01
2024-01-03 21:20:00,0,0,0.01
2024-01-03 21:30:00,0,0,0
2024-01-03 21:40:00,0,0,0.01
2024-01-03 21:50:00,0,0,0.01
2024-01-03 22:00:00,0,0,0
2024-01-03 22:10:00,0,0,0.01
2024-01-03 22:20:00,0,0,0.01
2024-01-03 22:30:00,0,0,0
2024-01-03 22:40:00,0,0,0.01
2024-01-03 22:50:00,0,0,0.01
2024-01-03 23:00:00,0,0,0
2024-01-03 23:10:00,0,0,0.01
2024-01-03 23:20:00,0,0,0.01
2024-01-03 23:30:00,0,0,0
2024-01-03 23:40:00,0,0,0.01
2024-01-03 23:50:00,0,0,0.01
2024-01-04 00:00:00,0,0,0
2024-01-04 00:10:00,0,0,0.01
2024-01-04 00:20:00,0,0,0
2024-01-04 00:30:00,0,0,0.01
2024-01-04 00:40:00,0,0,0.01
2024-01-04 00:50:00,0,0,0
2024-01-04 01:00:00,0,0,0.01
2024-01-04 01:10:00,0,0,0.01
2024-01-04 01:20:00,0,0,0
2024-01-04 01:30:00,0,0,0.01
2024-01-04 01:40:00,0,0,0.01
2024-01-04 01:50:00,0,0,0
2024-01-04 02:00:00,0,0,0.01
2024-01-04 02:10:00,0,0,0.01
2024-01-04 02:20:00,0,0,0
2024-01-04 02:30:00,0,0,0.01
2024-01-04 02:40:00,0,0,0.01
2024-01-04 02:50:00,0,0,0
2024-01-04 03:00:00,0,0,0.01
2024-01-04 03:10:00,0,0,0.01
2024-01-04 03:20:00,0,0,0
2024-01-04 03:30:00,0,0,0.01
2024-01-04 03:40:00,0,0,0
2024-01-04 03:50:00,0,0,0.01
2024-01-04 04:00:00,0,0,0.01
2024-01-04 04:10:00,0,0,0
2024-01-04 04:20:00,0,0,0.01
2024-01-04 04:30:00,0,0,0.01
2024-01-04 04:40:00,0,0,0
2024-01-04 04:50:00,0,0,0.01
2024-01-04 05:00:00,0,0,0.01
2024-01-04 05:10:00,0,0,0
2024-01-04 05:20:00,0,0,0.01
2024-01-04 05:30:00,0,0,0.01
2024-01-04 05:40:00,0,0,0
2024-01-04 05:50:00,0,0,0.01
2024-01-04 06:00:00,0,0,0
2024-01-04 06:10:00,0.01,0.12,0.01
2024-01-04 06:20:00,0.01,0.39,0.01
2024-01-04 06:30:00,0,0.24,0
2024-01-04 06:40:00,0.04,0.29,0.01
2024-01-04 06:50:00,0.02,0.53,0.01
2024-01-04 07:00:00,0.19,0.66,0
2024-01-04 07:10:00,0.24,0.68,0.01
2024-01-04 07:20:00,0.25,0.7,0.01
2024-01-04 07:30:00,0.16,0.73,0.1
2024-01-04 07:40:00,0.12,0.66,0.21
2024-01-04 07:50:00,0.1,0.45,0.21
2024-01-04 08:00:00,0.15,0.7,0.06
2024-01-04 08:10:00,0.22,0.76,0.05
2024-01-04 08:20:00,0.17,0.72,0.03
2024-01-04 08:30:00,0.08,0.73,0
2024-01-04 08:40:00,0.03,0.7,0.01
2024-01-04 08:50:00,0.07,0.67,0
2024-01-04 09:00:00,0.15,0.7,0.01
2024-01-04 09:10:00,0.14,0.67,0.01
2024-01-04 09:20:00,0.03,0.73,0
2024-01-04 09:30:00,0.05,0.7,0.01
2024-01-04 09:40:00,0.05,0.64,0.01
2024-01-04 09:50:00,0.11,0.65,0.01
2024-01-04 10:00:00,0.09,0.66,0.01
2024-01-04 10:10:00,0.15,0.65,0.02
2024-01-04 10:20:00,0.17,0.65,0.01
2024-01-04 10:30:00,0.12,0.63,0.01
2024-01-04 10:40:00,0.18,0.65,0.02
2024-01-04 10:50:00,0.13,0.66,0
2024-01-04 11:00:00,0.1,0.64,0.01
2024-01-04 11:10:00,0.17,0.64,0.01
2024-01-04 11:20:00,0.21,0.62,0
2024-01-04 11:30:00,0.16,0.6,0.04
2024-01-04 11:40:00,0.14,0.61,0.04
2024-01-04 11:50:00,0.07,0.65,0.02
2024-01-04 12:00:00,0.1,0.21,0.15
2024-01-04 12:10:00,0.1,0.12,0.19
2024-01-04 12:20:00,0.15,0.13,0.17
2024-01-04 12:30:00,0.08,0.14,0.19
2024-01-04 12:40:00,0.08,0.13,0.18
2024-01-04 12:50:00,0.08,0.27,0.14
2024-01-04 13:00:00,0.09,0.65,0.01
2024-01-04 13:10:00,0.12,0.65,0.01
2024-01-04 13:20:00,0.13,0.62,0
2024-01-04 13:30:00,0.13,0.63,0.01
2024-01-04 13:40:00,0.2,0.62,0.01
2024-01-04 13:50:00,0.17,0.6,0
2024-01-04 14:00:00,0.19,0.64,0.01
2024-01-04 14:10:00,0.13,0.62,0.01
2024-01-04 14:20:00,0.13,0.63,0
2024-01-04 14:30:00,0.16,0.63,0.01
2024-01-04 14:40:00,0.08,0.6,0.01
2024-01-04 14:50:00,0.07,0.61,0
2024-01-04 15:00:00,0.08,0.65,0.01
2024-01-04 15:10:00,0.16,0.66,0.01
2024-01-04 15:20:00,0.14,0.66,0.07
2024-01-04 15:30:00,0.12,0.68,0.15
2024-01-04 15:40:00,0.13,0.67,0.26
2024-01-04 15:50:00,0.02,0.62,0.15
2024-01-04 16:00:00,0.01,0.4,0.15
2024-01-04 16:10:00,0,0.24,0.14
2024-01-04 16:20:00,0,0.21,0.14
2024-01-04 16:30:00,0.02,0.15,0.14
2024-01-04 16:40:00,0,0.16,0.14
2024-01-04 16:50:00,0,0.15,0.13
2024-01-04 17:00:00,0,0.18,0.14
2024-01-04 17:10:00,0.06,0.71,0.05
2024-01-04 17:20:00,0.14,0.74,0.01
2024-01-04 17:30:00,0.04,0.67,0.01
2024-01-04 17:40:00,0.15,0.67,0
2024-01-04 17:50:00,0.03,0.71,0.01
2024-01-04 18:00:00,0.04,0.67,0.01
2024-01-04 18:10:00,0.05,0.65,0
2024-01-04 18:20:00,0.15,0.61,0.01
2024-01-04 18:30:00,0.07,0.57,0.01
2024-01-04 18:40:00,0.01,0.53,0
2024-01-04 18:50:00,0,0.4,0.01
2024-01-04 19:00:00,0.03,0.38,0.01
2024-01-04 19:10:00,0.01,0.42,0
2024-01-04 19:20:00,0.01,0.33,0.01
2024-01-04 19:30:00,0.01,0.25,0.01
2024-01-04 19:40:00,0,0.33,0
2024-01-04 19:50:00,0,0.32,0.01
2024-01-04 20:00:00,0.02,0.02,0.01
2024-01-04 20:10:00,0,0,0
2024-01-04 20:20:00,0,0,0.01
2024-01-04 20:30:00,0,0,0.01
2024-01-04 20:40:00,0,0,0
2024-01-04 20:50:00,0,0,0.01
2024-01-04 21:00:00,0,0,0
2024-01-04 21:10:00,0,0,0.01
2024-01-04 21:20:00,0,0,0.01
2024-01-04 21:30:00,0,0,0
2024-01-04 21:40:00,0,0,0.01
2024-01-04 21:50:00,0,0,0.01
2024-01-04 22:00:00,0,0,0
2024-01-04 22:10:00,0,0,0.01
2024-01-04 22:20:00,0,0,0.01
2024-01-04 22:30:00,0,0,0
2024-01-04 22:40:00,0,0,0.01
2024-01-04 22:50:00,0,0,0.01
2024-01-04 23:00:00,0,0,0
2024-01-04 23:10:00,0,0,0.01
2024-01-04 23:20:00,0,0,0.01
2024-01-04 23:30:00,0,0,0
2024-01-04 23:40:00,0,0,0.01
2024-01-04 23:50:00,0,0,0
2024-01-05 00:00:00,0,0,0.01
2024-01-05 00:10:00,0,0,0.01
2024-01-05 00:20:00,0,0,0
2024-01-05 00:30:00,0,0,0.01
2024-01-05 00:40:00,0,0,0.01
2024-01-05 00:50:00,0,0,0
2024-01-05 01:00:00,0,0,0.01
2024-01-05 01:10:00,0,0,0.01
2024-01-05 01:20:00,0,0,0
2024-01-05 01:30:00,0,0,0.01
2024-01-05 01:40:00,0,0,0.01
2024-01-05 01:50:00,0,0,0
2024-01-05 02:00:00,0,0,0.01
2024-01-05 02:10:00,0,0,0.01
2024-01-05 02:20:00,0,0,0
2024-01-05 02:30:00,0,0,0.01
2024-01-05 02:40:00,0,0,0.01
2024-01-05 02:50:00,0,0,0
2024-01-05 03:00:00,0,0,0.01
2024-01-05 03:10:00,0,0,0
2024-01-05 03:20:00,0,0,0.01
2024-01-05 03:30:00,0,0,0.01
2024-01-05 03:40:00,0,0,0
2024-01-05 03:50:00,0,0,0.01
2024-01-05 04:00:00,0,0,0.01
2024-01-05 04:10:00,0,0,0
2024-01-05 04:20:00,0,0,0.01
2024-01-05 04:30:00,0,0,0.01
2024-01-05 04:40:00,0,0,0
2024-01-05 04:50:00,0,0,0.01
2024-01-05 05:00:00,0,0,0.01
2024-01-05 05:10:00,0,0,0
2024-01-05 05:20:00,0,0,0.01
2024-01-05 05:30:00,0,0,0.01
2024-01-05 05:40:00,0,0,0
2024-01-05 05:50:00,0,0,0.01
2024-01-05 06:00:00,0,0,0
2024-01-05 06:10:00,0.02,0.11,0.01
2024-01-05 06:20:00,0,0.31,0.01
2024-01-05 06:30:00,0,0.35,0
2024-01-05 06:40:00,0.04,0.36,0.01
2024-01-05 06:50:00,0.12,0.63,0.01
2024-01-05 07:00:00,0.25,0.58,0
2024-01-05 07:10:00,0.26,0.7,0.01
2024-01-05 07:20:00,0.2,0.7,0.01
2024-01-05 07:30:00,0.22,0.71,0.04
2024-01-05 07:40:00,0.25,0.7,0.21
2024-01-05 07:50:00,0.15,0.67,0.11
2024-01-05 08:00:00,0.26,0.69,0
2024-01-05 08:10:00,0.21,0.69,0.01
2024-01-05 08:20:00,0.17,0.69,0.01
2024-01-05 08:30:00,0.25,0.73,0
2024-01-05 08:40:00,0.13,0.72,0.01
2024-01-05 08:50:00,0.09,0.69,0
2024-01-05 09:00:00,0.1,0.67,0.01
2024-01-05 09:10:00,0.08,0.65,0.01
2024-01-05 09:20:00,0.1,0.63,0
2024-01-05 09:30:00,0.1,0.62,0.01
2024-01-05 09:40:00,0.05,0.64,0.01
2024-01-05 09:50:00,0.03,0.66,0
2024-01-05 10:00:00,0.03,0.65,0.02
2024-01-05 10:10:00,0.02,0.67,0.03
2024-01-05 10:20:00,0.06,0.67,0.02
2024-01-05 10:30:00,0,0.58,0.03
2024-01-05 10:40:00,0.04,0.68,0.03
2024-01-05 10:50:00,0.02,0.64,0.03
2024-01-05 11:00:00,0.02,0.67,0.02
2024-01-05 11:10:00,0.04,0.62,0.02
2024-01-05 11:20:00,0.04,0.64,0
2024-01-05 11:30:00,0.04,0.62,0.04
2024-01-05 11:40:00,0.03,0.6,0.05
2024-01-05 11:50:00,0.04,0.62,0.04
2024-01-05 12:00:00,0.03,0.2,0.17
2024-01-05 12:10:00,0.06,0.15,0.18
2024-01-05 12:20:00,0.04,0.15,0.18
2024-01-05 12:30:00,0.08,0.13,0.18
2024-01-05 12:40:00,0.04,0.14,0.19
2024-01-05 12:50:00,0.07,0.25,0.15
2024-01-05 13:00:00,0.03,0.63,0.01
2024-01-05 13:10:00,0.03,0.6,0.01
2024-01-05 13:20:00,0.04,0.58,0
2024-01-05 13:30:00,0.11,0.63,0.01
2024-01-05 13:40:00,0.01,0.66,0.01
2024-01-05 13:50:00,0.07,0.61,0
2024-01-05 14:00:00,0.16,0.64,0.01
2024-01-05 14:10:00,0.14,0.63,0
2024-01-05 14:20:00,0.13,0.59,0.01
2024-01-05 14:30:00,0.12,0.66,0.01
2024-01-05 14:40:00,0.18,0.67,0
2024-01-05 14:50:00,0.27,0.62,0.01
2024-01-05 15:00:00,0.27,0.66,0.01
2024-01-05 15:10:00,0.32,0.69,0
2024-01-05 15:20:00,0.23,0.62,0.01
2024-01-05 15:30:00,0.2,0.61,0.01
2024-01-05 15:40:00,0.2,0.63,0
2024-01-05 15:50:00,0.19,0.65,0.01
2024-01-05 16:00:00,0.21,0.62,0.01
2024-01-05 16:10:00,0.13,0.61,0
2024-01-05 16:20:00,0.1,0.68,0.01
2024-01-05 16:30:00,0.19,0.66,0.01
2024-01-05 16:40:00,0.19,0.66,0
2024-01-05 16:50:00,0.17,0.62,0.01
2024-01-05 17:00:00,0.2,0.67,0.02
2024-01-05 17:10:00,0.16,0.69,0.06
2024-01-05 17:20:00,0.19,0.68,0.07
2024-01-05 17:30:00,0.21,0.68,0.08
2024-01-05 17:40:00,0.22,0.66,0.03
2024-01-05 17:50:00,0.15,0.65,0.01
2024-01-05 18:00:00,0.1,0.67,0.01
2024-01-05 18:10:00,0.03,0.66,0
2024-01-05 18:20:00,0.08,0.64,0.01
2024-01-05 18:30:00,0.1,0.67,0.01
2024-01-05 18:40:00,0.05,0.66,0
2024-01-05 18:50:00,0.04,0.66,0.01
2024-01-05 19:00:00,0.02,0.52,0.01
2024-01-05 19:10:00,0.02,0.56,0
2024-01-05 19:20:00,0.03,0.58,0.01
2024-01-05 19:30:00,0.01,0.53,0.01
2024-01-05 19:40:00,0,0.59,0
2024-01-05 19:50:00,0.03,0.55,0.01
2024-01-05 20:00:00,0,0.38,0
2024-01-05 20:10:00,0.01,0.35,0.01
2024-01-05 20:20:00,0.01,0.3,0.01
2024-01-05 20:30:00,0.01,0,0
2024-01-05 20:40:00,0,0,0.01
2024-01-05 20:50:00,0,0,0.01
2024-01-05 21:00:00,0,0,0
2024-01-05 21:10:00,0,0,0.01
2024-01-05 21:20:00,0,0,0.01
2024-01-05 21:30:00,0,0,0
2024-01-05 21:40:00,0,0,0.01
2024-01-05 21:50:00,0,0,0.01
2024-01-05 22:00:00,0,0,0
2024-01-05 22:10:00,0,0,0.01
2024-01-05 22:20:00,0,0,0.01
2024-01-05 22:30:00,0,0,0
2024-01-05 22:40:00,0,0,0.01
2024-01-05 22:50:00,0,0,0.01
2024-01-05 23:00:00,0,0,0
2024-01-05 23:10:00,0,0,0.01
2024-01-05 23:20:00,0,0,0
2024-01-05 23:30:00,0,0,0.01
2024-01-05 23:40:00,0,0,0.01
2024-01-05 23:50:00,0,0,0
2024-01-06 00:00:00,0,0,0.01
2024-01-06 00:10:00,0,0,0.01
2024-01-06 00:20:00,0,0,0
2024-01-06 00:30:00,0,0,0.01
2024-01-06 00:40:00,0,0,0.01
2024-01-06 00:50:00,0,0,0
2024-01-06 01:00:00,0,0,0.01
2024-01-06 01:10:00,0,0,0.01
2024-01-06 01:20:00,0,0,0
2024-01-06 01:30:00,0,0,0.01
2024-01-06 01:40:00,0,0,0.01
2024-01-06 01:50:00,0,0,0
2024-01-06 02:00:00,0,0,0.01
2024-01-06 02:10:00,0,0,0.01
2024-01-06 02:20:00,0,0,0
2024-01-06 02:30:00,0,0,0.01
2024-01-06 02:40:00,0,0,0.01
2024-01-06 02:50:00,0,0,0
2024-01-06 03:00:00,0,0,0.01
2024-01-06 03:10:00,0,0,0
2024-01-06 03:20:00,0,0,0.01
2024-01-06 03:30:00,0,0,0.01
2024-01-06 03:40:00,0,0,0
2024-01-06 03:50:00,0,0,0.01
2024-01-06 04:00:00,0,0,0.01
2024-01-06 04:10:00,0,0,0
2024-01-06 04:20:00,0,0,0.01
2024-01-06 04:30:00,0,0,0.01
2024-01-06 04:40:00,0,0,0
2024-01-06 04:50:00,0,0,0.01
2024-01-06 05:00:00,0,0,0.01
2024-01-06 05:10:00,0,0,0
2024-01-06 05:20:00,0,0,0.01
2024-01-06 05:30:00,0,0,0
2024-01-06 05:40:00,0,0,0.01
2024-01-06 05:50:00,0,0,0.01
2024-01-06 06:00:00,0,0,0
2024-01-06 06:10:00,0,0.06,0.01